Wahkon, Minnesota
Current Conditions -  °F | °C
As of 7:40 PM on Tuesday 25 Nov 2014 (Local Time) from KJMR Reporting Station
Overcast Overcast  
Wind Chill: 19°   Ceiling: 5000
Heat Index: 19°   Visibility: 10mi
Dew Point: 12°   Wind: 0mph
Humidity: 74%   Direction: NA
Pressure: 30.03"   Gusts: NA
Location:  46.12°N, 93.52°W
Report Text: KJMR 260140Z AUTO 00000KT 10SM SCT026 OVC050 M07/M11 A3003 RMK AO2
Loading
Personal Weather Stations






























Interactive Weather Map New forecast layout! Learn more

10-Day Weather Forecast

Advertisements
Track Severe Weather on mobile